Weather History for Buffalo, WY

Change the Weather History Date:

Saturday, March 16, 2013

  Actual Average Record
Temperature  
Mean Temperature 40 °F 34 °F  
Max Temperature 49 °F 46 °F 71 °F (2012)
Min Temperature 31 °F 23 °F 10 °F (2002)
Degree Days  
Heating Degree Days 25 31  
Month to date heating degree days 454 523  
Since 1 July heating degree days 5403 5763  
Cooling Degree Days 0 0  
Month to date cooling degree days 0 0  
Year to date cooling degree days 0 0  
Moisture  
Dew Point 29 °F    
Average Humidity 67    
Maximum Humidity 92    
Minimum Humidity 42    
Precipitation  
Precipitation 0.04 in 0.02 in 0.09 in (2011)
Month to date precipitation 0.07 0.36  
Year to date precipitation 0.68 1.13  
Sea Level Pressure  
Sea Level Pressure 29.92 in    
Wind  
Wind Speed 9 mph (SSE)    
Max Wind Speed 21 mph    
Max Gust Speed 26 mph    
Visibility 7 miles    
Events Fog , Snow    
T = Trace of Precipitation, MM = Missing Value Source: NWS Daily Summary

Daily Weather History Graph

Daily Weather History Graph

Search for Another Location

Airport:

Trip Planner

Search our weather history database for the weather conditions in past years. The results will help you decide how hot, cold, wet, or windy it might be!

Date:

Astronomy

Mar. 16, 2013 Rise Set
Actual Time 7:16 AM MDT 7:14 PM MDT
Civil Twilight 6:47 AM MDT 7:43 PM MDT
Nautical Twilight 6:14 AM MDT 8:17 PM MDT
Astronomical Twilight 5:39 AM MDT 8:52 PM MDT
Moon 9:36 AM MDT (3/16) No Moon Set
Length of Visible Light 12h 55m
Length of Day
11h 57m
Waxing Crescent, 23% of the Moon is Illuminated
Mar 16
Waxing Crescent
Mar 19
First Quarter
Mar 27
Full
Apr 2
Last Quarter
Apr 10
New

Hourly Weather History & Observations

Time (MDT) Temp. Windchill Dew Point Humidity Pressure Visibility Wind Dir Wind Speed Gust Speed Precip Events Conditions
12:53 AM 37.0 °F 33.3 °F 28.0 °F 70% 29.99 in 10.0 mi East 4.6 mph - N/A   Overcast
1:53 AM 37.9 °F - 28.0 °F 68% 29.97 in 10.0 mi Calm Calm - N/A   Scattered Clouds
2:53 AM 39.0 °F 35.7 °F 28.9 °F 67% 29.97 in 10.0 mi SSW 4.6 mph - N/A   Overcast
3:53 AM 39.0 °F 31.8 °F 28.9 °F 67% 29.96 in 10.0 mi South 11.5 mph - N/A   Overcast
4:50 AM 35.6 °F 28.6 °F 30.2 °F 81% 30.00 in 2.5 mi SSE 9.2 mph - 0.00 in Snow Light Snow
4:51 AM 35.1 °F 27.9 °F 30.0 °F 82% 29.97 in 2.5 mi SSE 9.2 mph - 0.00 in Snow Light Snow
5:04 AM 33.8 °F 27.7 °F 30.2 °F 87% 30.00 in 1.2 mi SE 6.9 mph - 0.01 in Snow Light Snow
5:12 AM 33.8 °F 28.6 °F 30.2 °F 87% 30.00 in 1.0 mi SE 5.8 mph - 0.01 in Snow Light Snow
5:35 AM 33.8 °F 29.6 °F 30.2 °F 87% 29.99 in 1.2 mi ESE 4.6 mph - 0.03 in Snow Light Snow
5:53 AM 33.1 °F 30.0 °F 30.9 °F 92% 29.97 in 1.8 mi SE 3.5 mph - 0.03 in Snow Light Snow
6:02 AM 33.8 °F 30.8 °F 30.2 °F 87% 29.99 in 2.5 mi SSE 3.5 mph - 0.00 in Snow Light Snow
6:10 AM 33.8 °F 30.8 °F 30.2 °F 87% 29.98 in 1.0 mi SSE 3.5 mph - 0.00 in Snow Light Snow
6:18 AM 33.8 °F 29.6 °F 30.2 °F 87% 29.98 in 0.5 mi SSE 4.6 mph - 0.00 in Fog , Snow Light Snow
6:26 AM 33.8 °F 28.6 °F 30.2 °F 87% 29.97 in 0.5 mi SSE 5.8 mph - 0.01 in Fog , Snow Light Snow
6:36 AM 33.8 °F 28.6 °F 30.2 °F 87% 29.97 in 1.0 mi SSE 5.8 mph - 0.01 in Snow Light Snow
6:38 AM 33.8 °F 27.7 °F 30.2 °F 87% 29.97 in 1.5 mi SSE 6.9 mph - 0.01 in Snow Light Snow
6:42 AM 33.8 °F 27.0 °F 30.2 °F 87% 29.97 in 3.0 mi SSE 8.1 mph - 0.01 in Snow Light Snow
6:53 AM 32.0 °F 22.1 °F 30.9 °F 96% 29.95 in 4.0 mi SSE 13.8 mph - 0.01 in Snow Light Snow
7:03 AM 33.8 °F 23.2 °F 30.2 °F 87% 29.94 in 9.0 mi South 17.3 mph - 0.00 in   Overcast
7:53 AM 35.1 °F 25.5 °F 30.9 °F 85% 29.93 in 10.0 mi South 15.0 mph - 0.00 in   Overcast
8:53 AM 37.0 °F 29.8 °F 30.0 °F 76% 29.93 in 10.0 mi SE 10.4 mph - N/A   Overcast
9:53 AM 37.9 °F 28.5 °F 32.0 °F 79% 29.93 in 10.0 mi SSE 17.3 mph - N/A   Overcast
10:53 AM 39.0 °F 30.6 °F 34.0 °F 82% 29.93 in 10.0 mi South 15.0 mph - N/A   Overcast
11:53 AM 41.0 °F 35.2 °F 35.1 °F 79% 29.91 in 10.0 mi South 9.2 mph - N/A   Overcast
12:53 PM 45.0 °F 42.6 °F 32.0 °F 60% 29.89 in 10.0 mi Variable 4.6 mph - N/A   Mostly Cloudy
1:53 PM 46.9 °F - 27.0 °F 46% 29.86 in 10.0 mi NNW 13.8 mph 21.9 mph N/A   Mostly Cloudy
2:53 PM 48.0 °F - 26.1 °F 42% 29.85 in 10.0 mi North 10.4 mph - N/A   Overcast
3:53 PM 46.0 °F 38.8 °F 25.0 °F 44% 29.84 in 10.0 mi North 18.4 mph 25.3 mph N/A   Overcast
4:53 PM 46.0 °F 41.4 °F 24.1 °F 42% 29.86 in 10.0 mi NNW 9.2 mph - N/A   Scattered Clouds
5:53 PM 45.0 °F 41.2 °F 26.1 °F 48% 29.86 in 10.0 mi NW 6.9 mph - N/A   Mostly Cloudy
6:53 PM 43.0 °F - 26.1 °F 51% 29.85 in 10.0 mi Calm Calm - N/A   Clear
7:53 PM 37.0 °F 33.3 °F 26.1 °F 65% 29.85 in 10.0 mi WSW 4.6 mph - N/A   Clear
8:53 PM 37.9 °F - 24.1 °F 57% 29.81 in 10.0 mi Calm Calm - N/A   Clear
9:53 PM 36.0 °F 30.3 °F 24.1 °F 62% 29.80 in 10.0 mi South 6.9 mph - N/A   Clear
10:53 PM 36.0 °F 29.0 °F 25.0 °F 64% 29.75 in 10.0 mi SSE 9.2 mph - N/A   Clear
11:53 PM 36.0 °F 28.0 °F 25.0 °F 64% 29.72 in 10.0 mi SE 11.5 mph - N/A   Clear